Location: Hamilton Branch State Park
(33.7552°N, 82.2209°W)
Time: 12:53:51
(UTC-04:00)

LightSail 2 - Visible Passes

Search period start: 22 September 2019 00:00
Search period end: 02 October 2019 00:00
Orbit: 701 x 730 km, 24.0° (Epoch: 21 September)

Date Brightness Start Highest point End Pass type
(mag) Time Alt. Az. Time Alt. Az. Time Alt. Az.
22 Sep 7.7 04:45:19 11° SE 04:45:19 11° SE 04:45:53 10° SE visible
22 Sep 6.7 06:24:24 10° SW 06:28:27 24° S 06:32:30 10° ESE visible
23 Sep 6.7 05:30:41 21° S 05:31:21 21° S 05:35:11 10° ESE visible
24 Sep 7.7 04:37:00 13° SE 04:37:00 13° SE 04:37:44 10° ESE visible
24 Sep 6.5 06:16:01 15° SW 06:19:16 27° S 06:23:29 10° ESE visible
25 Sep 6.5 05:22:19 25° S 05:22:19 25° S 05:26:16 10° ESE visible
26 Sep 7.8 04:28:37 11° ESE 04:28:37 11° ESE 04:28:59 10° ESE visible
26 Sep 6.4 06:07:38 19° SW 06:10:02 27° S 06:14:16 10° SE visible
27 Sep 6.6 05:13:56 25° SSE 05:13:56 25° SSE 05:17:08 10° ESE visible
27 Sep 6.8 06:54:05 10° WSW 06:57:54 21° S 07:01:44 10° SE visible
28 Sep 6.5 05:59:16 21° SW 06:00:45 24° S 06:04:48 10° SE visible
29 Sep 7.0 05:05:35 20° SSE 05:05:35 20° SSE 05:07:46 10° SE visible
29 Sep 7.0 06:45:25 10° SW 06:48:33 16° SSW 06:51:41 10° SSE visible
30 Sep 6.7 05:50:58 19° SSW 05:51:24 20° SSW 05:55:01 10° SSE visible
01 Oct 7.5 04:57:20 13° SE 04:57:20 13° SE 04:58:09 10° SE visible
01 Oct 7.3 06:37:39 10° SW 06:39:07 11° SSW 06:40:35 10° S visible
